User: anonymous   Login
Location: Caltech
(34.1382°N, 118.1253°W)
Time: 22:18:57
(UTC-08:00)
Language:

Cosmos 1833 - Orbit

View from above orbital plane
View from above orbital plane
View from above satellite
View from above satellite

Ground track
Ground track

The orbit data is extracted from the following two-line orbital elements,

1 17589U 87027A   17347.53537333  .00000223  00000-0  14479-3 0  9993
2 17589  70.9207 167.8881 0028402  33.2879 327.0021 14.12904835585633
Epoch (UTC): 13 December 2017 12:50:56
Eccentricity: 0.0028402
inclination: 70.9207°
perigee height: 829 km
apogee height: 870 km
right ascension of ascending node: 167.8881°
argument of perigee: 33.2879°
revolutions per day: 14.12904835
mean anomaly at epoch: 327.0021°
orbit number at epoch: 58563

The dashed part of the orbit path shows where the satellite is in the earth's shadow,  

DLR